Weather History for KLSE - March, 2014

Change the Weather History Date:

Wednesday, March 26, 2014

  Actual Average Record
Temperature  
Mean Temperature 29 °F 39 °F  
Max Temperature 43 °F 49 °F 83 °F (2007)
Min Temperature 14 °F 29 °F -2 °F (1965)
Degree Days  
Heating Degree Days 36 26  
Month to date heating degree days 1044 822  
Since 1 July heating degree days 7234 6331  
Cooling Degree Days 0 0  
Month to date cooling degree days 0 0  
Year to date cooling degree days 0 0  
Moisture  
Dew Point 13 °F    
Average Humidity 53    
Maximum Humidity 74    
Minimum Humidity 32    
Precipitation  
Precipitation T in 0.08 in 1.09 in (1967)
Month to date precipitation 0.67 1.64  
Year to date precipitation 3.03 3.81  
Snow  
Snow T in 0.20 in 5.60 in (1959)
Month to date snowfall 5.7 6.4  
Since 1 July snowfall 46.6 40.9  
Snow Depth T in    
Sea Level Pressure  
Sea Level Pressure 30.08 in    
Wind  
Wind Speed 14 mph (SSE)    
Max Wind Speed 26 mph    
Max Gust Speed 37 mph    
Visibility 10 miles    
Events      
T = Trace of Precipitation, MM = Missing Value Source: NWS Daily Summary

Daily Weather History Graph

Daily Weather History Graph

Search for Another Location

Airport or City:

Trip Planner

Search our weather history database for the weather conditions in past years. The results will help you decide how hot, cold, wet, or windy it might be!

Date:

Astronomy

Mar. 26, 2014 Rise Set
Actual Time 6:57 AM CDT 7:24 PM CDT
Civil Twilight 6:28 AM CDT 7:53 PM CDT
Nautical Twilight 5:54 AM CDT 8:27 PM CDT
Astronomical Twilight 5:19 AM CDT 9:02 PM CDT
Moon 4:14 AM CDT (3/26) 2:55 PM CDT (3/26)
Length of Visible Light 13h 25m
Length of Day
12h 27m
Waning Crescent, 21% of the Moon is Illuminated
Mar 26
Waning Crescent
Mar 30
New
Apr 7
First Quarter
Apr 15
Full
Apr 22
Last Quarter

Hourly Weather History & Observations

Time (CDT) Temp. Windchill Dew Point Humidity Pressure Visibility Wind Dir Wind Speed Gust Speed Precip Events Conditions
12:53 AM 16.0 °F 8.8 °F 8.1 °F 71% 30.27 in 10.0 mi South 4.6 mph - N/A   Clear
1:53 AM 17.1 °F 7.6 °F 9.0 °F 71% 30.27 in 10.0 mi SE 6.9 mph - N/A   Clear
2:53 AM 16.0 °F 6.3 °F 9.0 °F 74% 30.26 in 10.0 mi South 6.9 mph - N/A   Clear
3:53 AM 15.1 °F 6.4 °F 9.0 °F 77% 30.27 in 10.0 mi SSE 5.8 mph - N/A   Clear
4:53 AM 15.1 °F 5.2 °F 9.0 °F 77% 30.27 in 10.0 mi SSE 6.9 mph - N/A   Clear
5:53 AM 15.1 °F 4.2 °F 9.0 °F 77% 30.26 in 10.0 mi South 8.1 mph - N/A   Clear
6:53 AM 16.0 °F 5.3 °F 9.0 °F 74% 30.26 in 10.0 mi SSE 8.1 mph - N/A   Clear
7:53 AM 17.1 °F 5.0 °F 10.0 °F 74% 30.27 in 10.0 mi South 10.4 mph - N/A   Clear
8:53 AM 21.0 °F 8.6 °F 10.9 °F 65% 30.25 in 10.0 mi South 12.7 mph - N/A   Mostly Cloudy
9:53 AM 24.1 °F 12.5 °F 10.9 °F 57% 30.22 in 10.0 mi South 12.7 mph - N/A   Overcast
10:53 AM 26.1 °F 15.0 °F 12.0 °F 55% 30.19 in 10.0 mi South 12.7 mph - N/A   Overcast
11:53 AM 30.9 °F 20.7 °F 12.0 °F 46% 30.17 in 10.0 mi South 13.8 mph - N/A   Overcast
12:53 PM 35.1 °F 25.9 °F 12.9 °F 40% 30.13 in 10.0 mi South 13.8 mph - N/A   Clear
1:53 PM 37.0 °F 26.2 °F 10.9 °F 34% 30.08 in 10.0 mi South 21.9 mph 27.6 mph N/A   Clear
2:53 PM 39.0 °F 29.0 °F 12.9 °F 34% 30.00 in 10.0 mi South 20.7 mph 25.3 mph N/A   Overcast
3:53 PM 39.9 °F 29.7 °F 15.1 °F 36% 29.94 in 10.0 mi SSE 23.0 mph 32.2 mph N/A   Partly Cloudy
4:53 PM 42.1 °F 35.2 °F 15.1 °F 34% 29.92 in 10.0 mi SSE 12.7 mph 32.2 mph N/A   Clear
5:53 PM 39.9 °F 31.8 °F 16.0 °F 38% 29.90 in 10.0 mi SSE 15.0 mph - N/A   Scattered Clouds
6:53 PM 39.9 °F 31.1 °F 16.0 °F 38% 29.90 in 10.0 mi SSE 17.3 mph 26.5 mph N/A   Overcast
7:53 PM 39.9 °F 30.5 °F 17.1 °F 40% 29.87 in 10.0 mi South 19.6 mph 27.6 mph 0.00 in   Overcast
8:53 PM 39.0 °F 29.0 °F 18.0 °F 43% 29.85 in 10.0 mi SSE 20.7 mph 25.3 mph N/A   Overcast
9:53 PM 39.9 °F 31.8 °F 19.0 °F 43% 29.82 in 10.0 mi SSE 15.0 mph 25.3 mph 0.00 in   Overcast
10:53 PM 39.9 °F 32.1 °F 19.0 °F 43% 29.78 in 10.0 mi SSE 13.8 mph - N/A   Overcast
11:53 PM 41.0 °F 33.5 °F 19.9 °F 43% 29.76 in 10.0 mi South 13.8 mph - N/A   Overcast